Temp
9 10 10 10 10 9 8 8 9 9 8 8 7 8 8 8 7 7 8 8 7 6 6 7 7 7 7 7 6 6 7 6 6 6 6 6 6 6 6 6 6 6 6 6 6 5 5 5 5
9 8 9 9 9 8 8 8 9 9 9 8 8 8 8 8 8 9 8 8 7 7 7 7 6 6 6 6 6 6 6 6 6 6 6 6 6 6 6 6 6 6 6 6 5 5 5 5 5
8 8 9 9 8 8 7 8 9 9 9 9 9 9 9 8 9 8 8 7 7 7 7 7 7 7 7 6 6 6 6 6 6 6 6 6 6 6 6 6 5 5 6 6 6 6 5 5 5
9 9 8 8 9 9 8 8 8 9 9 8 9 9 9 9 8 8 7 7 7 7 7 7 7 7 6 6 6 6 6 7 7 7 6 6 6 6 6 6 6 5 5 5 5 5 5 5 5
9 8 8 9 8 8 8 8 8 8 9 9 10 10 9 9 8 7 7 7 7 7 7 6 6 7 7 7 7 7 7 7 7 7 6 7 6 6 6 6 6 6 6 5 5 5 5 5 5
9 8 9 9 8 8 8 8 8 8 9 9 9 10 10 9 8 8 7 7 7 7 6 7 7 7 7 7 7 6 6 6 6 6 6 6 6 6 6 6 6 6 6 6 5 5 5 5 4
9 9 9 9 9 8 8 8 8 8 8 9 9 9 10 9 9 8 8 7 7 6 6 7 7 7 7 6 6 6 6 6 6 6 6 6 6 6 6 6 6 6 6 5 5 5 5 5 4
10 9 9 9 8 9 8 8 8 7 8 8 8 8 9 9 9 8 8 8 7 7 7 7 7 7 7 7 6 6 6 6 6 6 6 6 6 6 6 6 6 6 5 5 5 5 5 5 5
9 9 10 9 9 9 8 8 7 6 7 8 9 9 9 8 9 9 8 8 8 7 7 7 7 7 7 7 7 6 6 6 6 6 6 6 5 5 5 5 5 5 5 5 5 5 5 5 5
10 10 10 10 10 10 9 8 7 7 8 7 8 9 8 9 8 8 9 8 8 8 8 8 7 7 7 7 7 6 6 6 6 5 5 5 5 5 5 5 5 5 5 4 4 4 4 4 4
10 10 10 10 10 9 9 7 6 6 7 7 7 8 8 9 9 9 9 8 8 8 8 8 8 7 7 6 6 6 6 6 5 5 5 5 5 5 5 4 4 4 4 4 4 4 3 3 3
9 10 10 10 10 9 8 8 7 7 7 7 7 7 8 8 8 9 8 8 8 7 7 7 7 7 7 6 6 6 6 5 5 5 5 5 5 5 4 4 4 4 4 4 3 3 3 3 3
10 9 10 10 9 9 8 8 7 7 7 7 7 7 7 8 8 9 9 9 8 7 7 7 6 7 7 6 6 6 6 5 5 5 5 5 5 4 4 4 4 3 3 3 3 3 2 2 2
10 9 10 9 8 7 7 7 7 7 7 7 7 7 7 8 8 8 8 8 7 7 7 7 6 6 6 6 6 6 5 5 5 5 5 4 4 4 4 4 3 3 3 3 2 2 2 1 1
9 9 9 9 8 7 7 7 7 7 7 7 7 7 7 8 8 8 8 7 6 6 6 6 6 6 6 6 5 5 5 5 5 4 4 4 4 4 3 3 3 3 3 2 2 1 1 0 -0
9 9 9 9 9 8 7 8 8 8 8 8 8 8 8 8 8 8 7 7 6 6 6 6 6 5 5 5 5 5 5 4 4 4 4 4 3 3 3 3 3 2 2 2 1 1 1 0 -0
9 9 9 9 9 9 9 8 8 8 8 9 8 8 8 8 9 8 7 7 6 6 6 6 5 5 5 5 5 4 4 4 4 4 4 3 3 3 3 2 2 1 1 0 0 0 0 -0 -0
10 9 9 9 10 9 9 9 9 8 9 9 8 8 9 9 9 8 8 7 6 6 6 6 6 5 5 5 4 4 4 4 4 3 3 3 2 2 2 1 1 0 -0 -1 -1 -1 -1 -1 -0
9 9 10 10 10 10 10 10 8 9 8 8 8 9 9 9 8 8 7 6 6 6 6 5 5 5 4 4 4 4 4 3 3 3 2 2 2 1 1 0 0 -0 -0 -1 -1 -1 -1 -1 -1
10 9 10 11 11 10 10 10 9 8 9 10 10 9 9 8 8 7 7 6 6 6 5 5 5 5 4 4 4 3 4 3 3 2 2 2 1 1 1 0 -0 -0 -1 -1 -1 -1 -1 -2 -2
10 10 10 10 10 10 9 9 9 9 9 9 8 8 8 8 7 7 6 6 6 6 5 5 5 5 4 4 4 3 3 3 2 2 1 1 1 1 0 -0 -1 -1 -1 -1 -2 -2 -2 -2 -2
9 10 9 9 9 9 9 9 10 10 12 9 8 8 8 7 7 6 6 6 6 5 5 5 4 4 4 4 3 3 2 2 2 2 1 1 0 0 -0 -1 -1 -1 -2 -2 -2 -2 -2 -3 -3
9 9 9 9 9 10 10 10 9 11 11 11 8 8 7 7 7 7 7 6 6 5 5 5 4 3 3 3 3 3 2 2 2 2 1 -0 -0 -0 -0 -1 -1 -2 -2 -2 -2 -3 -3 -3 -4
9 9 9 9 9 8 10 9 9 10 11 9 8 7 8 7 7 7 6 6 6 6 5 5 4 3 3 3 3 2 2 1 1 0 0 0 0 -0 -1 -1 -2 -2 -2 -2 -3 -3 -4 -4 -4
8 8 8 7 5 6 9 9 8 9 9 9 8 8 7 7 8 7 6 6 6 5 5 4 3 3 3 2 2 1 1 0 0 -0 -0 -0 -1 -1 -1 -2 -2 -2 -3 -3 -4 -5 -4 -5 -5
8 8 8 6 4 6 9 8 8 8 8 8 8 8 8 7 7 7 6 5 5 5 4 3 3 2 2 1 1 0 0 -0 -1 -1 -1 -2 -2 -2 -2 -3 -3 -3 -4 -5 -5 -5 -5 -5 -6
7 7 8 8 7 7 8 7 7 7 8 8 8 8 8 8 7 7 6 6 6 5 4 3 2 1 1 0 0 0 -0 -1 -2 -3 -3 -3 -4 -5 -4 -4 -4 -5 -5 -5 -5 -5 -6 -6 -7
7 8 7 7 3 5 7 7 7 7 8 8 8 7 7 7 6 6 6 6 6 4 4 2 1 1 0 0 0 -0 -1 -2 -3 -3 -4 -4 -5 -4 -4 -5 -5 -5 -5 -5 -5 -6 -7 -7 -8
7 7 7 7 7 3 2 7 7 8 8 8 8 7 7 6 6 6 5 5 5 4 3 2 1 0 0 -0 -0 -1 -1 -3 -4 -4 -4 -4 -3 -4 -4 -5 -5 -5 -5 -5 -6 -7 -7 -8 -9
7 7 7 7 6 6 6 7 7 7 7 7 8 7 7 6 6 6 5 5 4 4 3 2 1 1 0 -0 -0 -1 -3 -4 -3 -3 -3 -3 -5 -4 -5 -5 -5 -5 -5 -6 -7 -7 -8 -9 -10
Height
3189 3190 3187 3189 3195 3191 3190 3191 3190 3190 3191 3192 3192 3192 3192 3190 3190 3193 3190 3190 3191 3192 3194 3195 3194 3194 3194 3194 3193 3192 3191 3191 3190 3189 3188 3187 3186 3185 3184 3183 3182 3181 3181 3181 3181 3180 3180 3178 3176
3191 3191 3190 3189 3193 3192 3192 3190 3190 3190 3192 3193 3193 3192 3192 3192 3191 3191 3191 3191 3193 3194 3195 3195 3195 3195 3195 3194 3194 3193 3192 3191 3190 3189 3188 3187 3186 3185 3185 3184 3182 3181 3180 3180 3179 3179 3179 3178 3177
3191 3191 3193 3190 3192 3193 3193 3192 3191 3190 3190 3192 3193 3193 3192 3193 3193 3194 3193 3195 3195 3195 3196 3195 3196 3195 3194 3194 3193 3192 3191 3190 3189 3189 3188 3187 3186 3185 3184 3183 3182 3181 3180 3179 3178 3177 3177 3176 3175
3190 3191 3192 3192 3190 3191 3191 3191 3191 3192 3192 3192 3192 3192 3193 3193 3194 3195 3196 3195 3196 3196 3196 3196 3196 3195 3194 3193 3192 3191 3190 3189 3189 3188 3187 3186 3185 3184 3183 3182 3181 3180 3179 3178 3177 3177 3176 3175 3172
3192 3192 3192 3192 3192 3191 3191 3192 3191 3191 3192 3192 3191 3192 3192 3194 3194 3195 3196 3196 3197 3197 3197 3196 3195 3194 3193 3192 3191 3190 3189 3189 3188 3187 3186 3185 3183 3182 3181 3179 3179 3177 3176 3176 3175 3176 3176 3174 3173
3193 3194 3193 3192 3192 3191 3192 3192 3192 3190 3191 3192 3191 3192 3193 3194 3195 3197 3196 3197 3198 3199 3198 3196 3195 3194 3193 3192 3191 3189 3189 3188 3188 3186 3185 3184 3183 3181 3180 3179 3178 3177 3176 3175 3174 3173 3173 3173 3172
3193 3193 3192 3191 3189 3189 3191 3191 3191 3191 3191 3192 3192 3192 3193 3194 3195 3196 3197 3198 3199 3199 3197 3196 3195 3194 3192 3191 3190 3189 3188 3188 3187 3186 3185 3183 3182 3180 3180 3179 3178 3177 3176 3174 3173 3172 3171 3171 3169
3192 3192 3190 3187 3187 3188 3190 3190 3190 3191 3191 3192 3192 3193 3193 3193 3194 3196 3197 3199 3200 3200 3198 3197 3196 3195 3194 3192 3190 3189 3188 3188 3187 3186 3184 3183 3182 3180 3179 3178 3178 3177 3175 3174 3173 3172 3171 3169 3168
3192 3191 3189 3186 3186 3188 3189 3190 3190 3190 3189 3191 3193 3193 3195 3193 3196 3197 3198 3199 3201 3200 3198 3195 3194 3194 3193 3193 3191 3189 3188 3188 3187 3186 3185 3183 3182 3181 3180 3179 3178 3177 3176 3174 3173 3172 3171 3169 3167
3190 3189 3188 3188 3188 3186 3188 3188 3188 3189 3188 3189 3192 3193 3193 3194 3196 3196 3198 3199 3199 3198 3198 3196 3192 3192 3192 3192 3191 3190 3189 3188 3187 3186 3185 3184 3183 3182 3181 3181 3180 3178 3177 3176 3174 3172 3171 3169 3167
3188 3187 3186 3186 3186 3186 3187 3187 3187 3188 3189 3190 3192 3192 3193 3194 3195 3196 3198 3198 3198 3195 3195 3195 3196 3194 3192 3192 3191 3191 3189 3188 3188 3186 3186 3185 3184 3183 3182 3181 3180 3179 3177 3176 3174 3174 3172 3170 3167
3187 3186 3186 3186 3184 3183 3185 3185 3187 3189 3191 3191 3191 3190 3191 3193 3194 3195 3198 3198 3198 3195 3194 3194 3194 3194 3194 3192 3191 3190 3190 3189 3188 3187 3187 3186 3185 3184 3183 3182 3181 3179 3178 3176 3174 3173 3170 3169 3167
3185 3186 3186 3185 3184 3183 3183 3186 3187 3187 3188 3189 3190 3190 3191 3192 3193 3195 3196 3196 3196 3194 3193 3193 3192 3192 3192 3192 3192 3191 3190 3189 3189 3188 3187 3187 3186 3185 3183 3182 3181 3179 3178 3176 3174 3172 3169 3167 3164
3184 3185 3185 3184 3185 3183 3184 3186 3185 3186 3186 3188 3189 3190 3190 3191 3191 3193 3193 3193 3194 3195 3193 3194 3193 3192 3192 3193 3192 3191 3190 3190 3189 3188 3188 3186 3185 3184 3183 3181 3180 3178 3176 3174 3173 3170 3168 3165 3162
3184 3184 3184 3185 3185 3185 3185 3186 3183 3184 3185 3186 3188 3189 3189 3190 3190 3191 3191 3193 3194 3193 3192 3192 3192 3191 3191 3191 3191 3190 3190 3189 3189 3188 3188 3186 3185 3184 3182 3181 3179 3177 3175 3173 3171 3169 3166 3164 3160
3184 3183 3182 3183 3184 3186 3186 3184 3182 3182 3183 3185 3186 3187 3188 3188 3189 3188 3190 3193 3193 3193 3191 3191 3190 3190 3190 3190 3190 3189 3190 3189 3188 3187 3187 3185 3184 3183 3182 3180 3179 3176 3174 3173 3171 3169 3166 3163 3160
3181 3180 3180 3181 3181 3181 3182 3182 3180 3180 3181 3183 3184 3185 3185 3186 3186 3187 3189 3190 3191 3190 3190 3190 3190 3190 3189 3189 3189 3189 3188 3188 3187 3186 3186 3184 3183 3182 3181 3179 3177 3175 3173 3170 3168 3166 3164 3162 3158
3177 3178 3178 3178 3178 3176 3177 3178 3179 3177 3179 3180 3182 3183 3183 3183 3183 3185 3186 3188 3189 3189 3189 3188 3188 3188 3187 3187 3188 3188 3188 3186 3186 3184 3184 3184 3182 3180 3180 3178 3175 3173 3171 3167 3165 3162 3159 3158 3156
3176 3176 3175 3173 3172 3173 3173 3174 3174 3176 3177 3177 3178 3180 3181 3181 3182 3183 3184 3185 3186 3187 3187 3186 3186 3186 3185 3186 3186 3185 3186 3185 3184 3183 3182 3182 3181 3179 3176 3175 3173 3170 3168 3165 3161 3158 3155 3152 3150
3171 3172 3174 3172 3171 3171 3172 3171 3172 3172 3172 3173 3174 3177 3180 3179 3180 3181 3181 3183 3184 3184 3185 3185 3184 3184 3183 3183 3183 3182 3183 3182 3182 3181 3181 3179 3178 3176 3174 3172 3170 3167 3163 3160 3157 3154 3150 3145 3140
3170 3170 3170 3170 3170 3170 3169 3168 3170 3171 3167 3168 3170 3176 3177 3176 3177 3177 3178 3180 3182 3183 3183 3183 3183 3181 3180 3180 3179 3178 3179 3180 3180 3178 3177 3177 3175 3173 3171 3169 3167 3163 3159 3155 3151 3146 3143 3140 3133
3169 3169 3168 3169 3169 3169 3168 3167 3168 3165 3161 3161 3165 3173 3174 3173 3174 3174 3176 3177 3179 3180 3181 3181 3181 3179 3178 3177 3176 3175 3176 3176 3176 3176 3175 3173 3171 3170 3168 3165 3162 3158 3154 3149 3145 3139 3135 3132 3128
3167 3167 3167 3167 3167 3167 3166 3165 3162 3161 3158 3158 3163 3169 3170 3170 3171 3172 3174 3176 3176 3178 3179 3179 3178 3177 3175 3174 3172 3171 3172 3172 3172 3172 3170 3169 3168 3166 3163 3160 3157 3153 3149 3144 3139 3133 3129 3124 3119
3164 3165 3165 3164 3164 3163 3162 3162 3159 3160 3159 3159 3163 3165 3166 3167 3168 3170 3173 3174 3175 3176 3176 3177 3176 3174 3172 3171 3169 3166 3166 3167 3167 3167 3166 3164 3162 3160 3158 3155 3152 3147 3142 3136 3130 3125 3122 3116 3109
3161 3163 3164 3165 3164 3161 3159 3158 3158 3159 3159 3161 3162 3162 3163 3165 3167 3168 3170 3172 3173 3173 3173 3173 3174 3172 3169 3167 3167 3165 3162 3162 3163 3162 3160 3159 3157 3154 3152 3150 3145 3139 3133 3127 3122 3116 3110 3103 3097
3158 3161 3161 3163 3163 3159 3157 3156 3158 3160 3161 3162 3161 3161 3162 3164 3165 3166 3167 3169 3169 3170 3170 3169 3170 3169 3167 3165 3162 3161 3159 3157 3156 3156 3156 3154 3151 3148 3144 3139 3135 3131 3125 3120 3114 3108 3101 3094 3086
3155 3156 3159 3159 3159 3158 3156 3156 3158 3159 3161 3161 3161 3160 3160 3162 3161 3163 3165 3166 3166 3166 3166 3165 3165 3165 3164 3162 3159 3157 3156 3156 3154 3153 3151 3149 3145 3142 3139 3134 3130 3124 3118 3112 3106 3099 3091 3084 3076
3152 3154 3156 3156 3159 3159 3151 3152 3151 3156 3157 3158 3158 3158 3158 3158 3159 3160 3162 3162 3162 3162 3163 3161 3160 3159 3158 3157 3157 3156 3154 3153 3152 3150 3148 3145 3141 3138 3133 3128 3123 3117 3111 3104 3098 3090 3082 3074 3066
3150 3150 3151 3152 3152 3151 3154 3148 3148 3151 3155 3156 3156 3158 3158 3157 3156 3157 3156 3157 3157 3156 3157 3156 3155 3154 3153 3153 3153 3153 3152 3150 3149 3147 3144 3140 3137 3133 3128 3122 3117 3111 3104 3097 3089 3080 3071 3063 3056
3146 3147 3148 3148 3148 3148 3147 3148 3146 3149 3150 3153 3154 3155 3156 3155 3155 3155 3153 3151 3150 3150 3150 3151 3151 3150 3149 3150 3150 3150 3149 3148 3146 3143 3140 3137 3132 3127 3122 3116 3110 3103 3095 3087 3079 3070 3061 3052 3044
Wind_Speed
8 15 7 9 6 4 4 5 9 11 18 15 15 9 4 4 0 1 12 12 10 9 8 8 7 7 6 5 5 5 5 5 5 5 5 5 5 5 5 4 4 4 4 4 4 4 4 4 4
7 11 10 11 7 1 6 9 9 11 12 13 12 12 7 2 4 10 11 11 11 9 8 7 6 5 5 4 3 4 4 4 4 4 4 3 3 4 4 4 4 3 3 3 3 3 3 2 2
9 10 11 4 1 6 8 11 8 8 10 10 11 8 8 5 7 8 12 10 9 7 5 5 3 4 3 4 5 6 6 6 6 6 6 5 5 5 5 5 4 3 3 3 3 2 2 2 1
6 10 10 9 5 7 13 13 10 9 8 8 9 6 9 9 9 9 8 9 7 5 4 3 2 4 5 6 5 6 7 7 7 7 7 7 6 5 5 4 4 5 6 6 6 5 5 4 5
7 7 7 5 2 2 11 8 7 13 9 8 8 9 8 8 10 10 8 5 4 4 3 4 5 6 5 4 5 6 7 8 8 8 7 6 5 5 5 4 4 4 5 6 7 7 7 8 8
4 1 6 9 8 7 9 9 10 13 9 7 7 9 9 9 9 10 8 4 2 3 5 6 6 5 5 5 6 6 7 8 8 8 7 6 5 6 6 6 6 6 6 5 5 6 7 8 10
6 5 7 12 13 15 12 14 13 10 9 6 6 9 9 8 9 8 6 3 0 5 8 8 6 6 6 6 6 6 6 6 6 7 7 7 6 7 7 7 6 6 6 6 6 6 5 5 8
5 7 7 9 16 17 7 14 8 3 7 9 9 7 7 8 7 6 6 3 1 5 7 7 8 9 8 7 6 6 6 6 6 6 5 5 6 7 7 7 7 7 7 7 7 7 6 6 7
8 6 9 6 10 13 7 14 11 10 10 9 9 7 6 8 7 5 3 1 2 6 5 3 6 8 9 9 7 6 5 5 4 4 6 6 7 7 7 7 7 8 9 8 8 8 8 8 9
2 6 4 5 5 11 9 18 17 18 15 11 8 8 5 8 6 5 2 2 5 10 9 8 7 8 8 7 6 6 5 4 4 4 5 5 6 7 8 9 10 10 10 11 10 10 10 10 10
1 5 5 9 11 4 12 22 19 19 17 12 12 11 8 5 5 4 3 3 4 6 7 10 10 9 7 5 6 5 4 5 4 6 5 7 8 8 9 10 10 9 8 7 8 8 8 9 10
3 4 8 11 8 4 10 17 16 15 16 11 7 9 10 5 4 5 1 1 5 5 5 7 9 9 8 5 3 5 7 7 6 7 7 8 9 10 11 10 10 11 12 13 13 13 12 12 11
1 3 10 12 2 3 10 7 7 9 11 8 7 5 7 8 8 6 2 3 7 4 4 4 4 5 6 7 8 7 6 5 5 6 7 7 8 9 9 11 11 12 13 14 14 14 14 15 15
9 10 11 6 5 2 3 10 11 13 13 10 9 7 10 9 10 6 3 3 6 6 4 3 4 5 6 6 6 6 5 4 4 5 5 5 6 8 10 11 12 13 15 16 17 17 17 17 18
5 8 8 4 7 9 10 11 15 13 11 11 12 12 10 9 8 4 5 4 4 4 6 4 3 3 3 4 4 3 3 3 4 5 5 5 7 8 10 12 14 16 18 20 21 21 20 19 19
9 11 9 4 5 9 16 15 15 12 12 8 7 11 10 9 8 8 7 7 4 6 7 6 4 3 3 3 3 4 4 4 5 6 5 5 6 8 10 12 13 15 17 18 19 20 20 20 19
17 11 10 12 12 11 11 6 18 16 14 7 8 10 12 12 12 12 10 8 6 7 8 8 5 4 4 4 3 4 5 5 5 6 5 5 6 8 9 11 12 14 17 19 21 22 22 22 21
10 11 14 16 16 19 17 16 8 19 11 13 11 11 12 12 13 12 11 8 8 5 7 8 7 6 6 6 5 7 6 6 7 7 7 5 6 9 10 11 13 16 18 20 22 25 26 26 25
16 19 17 16 18 20 11 12 17 13 14 16 18 16 11 8 9 12 10 9 9 8 6 8 10 9 8 8 8 9 9 7 8 9 9 8 8 10 14 15 16 19 21 23 26 29 30 31 30
12 16 4 8 7 13 10 10 16 18 18 19 20 20 13 8 8 11 11 11 11 12 11 9 11 11 10 10 11 12 12 9 11 12 10 11 11 12 17 19 20 23 26 28 30 32 34 36 38
2 3 2 2 6 7 9 18 21 20 29 27 29 20 12 10 9 13 15 14 14 14 16 14 11 13 14 14 15 16 14 12 13 13 12 13 14 15 20 22 23 26 30 33 36 37 37 38 41
5 3 2 7 9 8 4 4 2 14 13 24 28 21 10 7 11 14 14 16 16 15 16 17 15 14 17 18 18 18 16 15 15 14 13 15 16 18 23 24 26 29 33 37 40 42 42 43 43
9 10 8 2 4 7 10 9 1 11 8 7 16 14 6 8 12 14 13 14 17 17 17 19 19 18 17 19 20 20 19 18 17 18 17 17 18 22 25 26 29 32 37 41 43 44 45 47 48
12 11 12 9 5 3 8 6 4 4 7 13 19 15 12 14 15 13 14 14 16 18 19 20 20 21 18 17 21 23 21 19 19 20 21 24 26 28 28 30 31 37 41 44 46 47 48 49 52
14 9 3 3 1 6 6 4 3 8 11 15 17 18 19 17 13 15 17 15 14 16 18 19 19 20 17 16 18 21 23 23 23 24 26 28 30 32 33 32 36 41 45 48 50 51 54 56 57
15 12 9 5 3 4 6 4 9 13 15 17 20 19 17 16 14 14 16 11 13 16 18 18 18 19 18 16 15 17 23 24 26 27 29 31 34 36 37 40 42 45 48 49 52 54 56 59 60
15 15 12 8 4 1 4 5 14 15 15 17 15 16 16 12 8 9 9 8 11 15 18 17 16 17 17 16 17 19 21 25 26 27 29 33 33 36 38 42 43 46 49 51 53 56 59 60 59
19 14 10 12 3 4 8 10 11 19 18 17 12 7 7 6 5 6 9 13 12 12 17 17 14 16 17 19 22 22 21 22 25 27 28 30 29 37 41 42 45 48 51 53 57 58 59 58 56
19 16 9 12 7 6 2 4 5 18 16 14 13 9 9 7 9 14 15 14 14 14 18 19 20 21 22 23 24 24 24 25 26 28 31 30 34 39 40 41 45 48 53 56 57 58 57 54 51
15 18 22 18 8 11 6 7 2 11 19 21 17 15 14 11 14 19 16 20 15 14 17 21 23 25 26 25 25 25 24 25 27 31 30 36 38 36 36 41 46 51 54 55 55 53 51 49 47
Wind_Direction
102 47 76 195 154 117 83 118 135 142 131 124 154 162 172 123 10 172 129 112 111 107 105 101 95 86 76 57 38 26 17 20 15 16 23 25 31 22 22 26 31 21 13 20 31 44 57 54 33
58 67 26 97 134 287 133 165 189 198 197 161 174 202 212 182 62 110 108 115 112 112 107 105 99 92 66 32 350 330 315 318 318 316 313 313 319 323 334 351 2 4 355 348 353 1 17 33 24
64 56 30 110 68 183 178 184 218 190 168 184 212 187 207 175 103 101 115 121 117 116 113 95 72 46 18 324 310 303 304 307 294 286 287 291 305 298 282 276 267 274 289 296 291 285 283 282 279
46 24 30 43 3 223 209 203 227 214 182 170 167 163 172 151 114 110 113 112 114 98 66 52 6 341 323 314 322 331 329 329 329 334 338 338 341 334 324 310 291 277 268 262 268 275 273 265 247
27 340 338 352 24 222 212 222 242 206 214 176 157 157 153 139 125 124 130 111 86 62 21 352 330 317 322 344 355 350 339 333 340 339 334 324 327 322 323 323 327 317 300 293 282 271 271 270 279
74 287 293 282 245 233 222 230 210 212 219 175 168 160 161 149 133 140 142 127 94 20 350 332 332 352 345 351 353 349 342 343 342 331 317 324 333 334 338 339 340 334 326 315 304 292 275 273 272
4 337 309 306 246 224 243 223 204 219 228 198 183 172 172 159 154 152 149 168 353 1 335 348 345 346 347 349 350 356 350 347 336 323 330 336 345 359 1 2 360 356 347 333 323 316 308 290 268
57 298 286 316 216 234 229 206 208 229 230 208 197 192 179 179 169 165 172 185 354 348 337 344 349 352 353 350 357 356 357 349 337 339 341 1 14 9 6 4 1 3 353 347 342 337 324 306 289
318 304 333 309 220 249 233 195 190 230 242 226 221 208 188 192 180 193 202 226 358 333 336 16 4 5 6 358 356 360 10 4 357 354 351 1 8 8 17 8 8 8 359 359 355 345 337 324 308
359 256 296 25 341 262 237 204 196 214 241 248 247 244 236 217 184 214 256 2 1 352 340 6 10 16 21 358 5 7 11 15 6 21 14 17 26 26 27 21 22 26 22 16 12 6 2 350 335
164 260 308 317 313 277 237 205 207 222 237 261 291 266 260 225 212 245 1 31 350 357 355 356 4 12 26 20 356 8 20 31 26 40 33 37 38 37 36 35 28 24 21 13 5 6 2 352 342
277 280 307 320 314 268 239 224 223 240 252 260 287 241 243 263 268 289 14 36 337 360 10 7 7 13 10 18 18 22 28 30 32 38 35 35 32 29 27 23 12 5 357 352 346 344 335 329 323
307 276 310 323 313 209 170 181 217 245 235 263 261 267 292 284 280 281 323 351 344 357 337 360 359 15 20 16 12 22 30 32 33 37 32 25 20 20 12 1 359 353 349 346 345 343 336 333 326
302 307 314 310 117 206 199 181 230 257 246 255 275 287 305 293 279 281 298 3 3 335 302 308 338 14 16 24 13 15 21 19 23 27 20 8 10 9 8 5 3 3 0 359 358 354 349 345 343
310 304 308 304 195 209 206 214 251 269 259 264 275 283 288 272 271 253 264 304 342 287 261 284 297 340 24 23 3 359 352 350 358 354 355 356 3 10 11 8 7 2 3 5 5 1 355 347 340
291 285 274 273 279 216 227 248 241 257 249 260 266 268 275 270 258 257 267 294 317 288 258 258 274 303 336 348 334 321 325 332 335 330 335 343 1 10 5 359 357 358 1 1 2 2 359 352 346
275 258 263 269 270 257 250 277 235 242 254 253 258 260 267 269 277 281 281 296 303 282 273 265 272 291 296 295 294 293 306 311 309 308 316 332 344 348 347 343 347 355 352 350 350 352 352 350 346
250 249 267 284 262 242 265 245 239 253 240 245 261 266 265 286 284 284 291 310 311 288 285 271 272 276 277 286 294 292 296 289 294 289 293 308 321 322 323 329 338 341 341 340 337 337 339 340 339
289 263 300 301 272 245 258 242 238 225 232 249 258 259 272 298 302 304 326 1 4 357 321 276 267 265 271 281 282 280 282 279 279 269 281 290 296 302 313 321 328 328 330 327 328 330 329 328 329
272 260 272 320 269 240 238 253 255 234 271 280 282 263 265 277 329 330 336 359 13 6 351 318 279 277 272 276 276 275 280 281 268 270 274 283 290 300 307 310 319 321 322 323 323 323 323 325 327
190 196 246 150 186 211 251 257 245 265 273 268 256 252 254 283 323 326 324 335 349 354 350 342 317 291 283 277 277 278 282 281 267 268 275 279 280 291 298 304 312 316 318 319 318 319 321 324 326
296 259 166 156 192 221 262 272 166 309 280 249 246 235 252 298 305 290 309 322 332 335 335 335 330 315 288 281 277 276 276 274 276 276 268 276 280 288 292 299 308 312 314 313 314 317 320 324 323
265 258 269 304 245 261 245 283 341 305 287 235 210 221 223 269 278 285 308 319 319 317 319 324 327 325 302 284 279 279 277 279 282 284 282 277 274 278 289 300 305 307 307 308 312 317 321 321 320
259 256 272 293 283 265 332 253 298 248 249 167 179 201 225 245 251 267 280 289 296 300 306 314 318 318 310 287 279 280 282 281 281 278 277 279 282 286 293 299 300 300 304 310 315 318 318 318 318
249 241 289 306 302 221 342 256 199 154 167 188 193 212 227 238 269 262 261 274 290 296 298 301 308 310 312 297 282 280 280 278 277 279 280 283 286 291 295 295 296 302 310 315 317 316 317 318 317
239 240 209 207 204 259 273 202 185 172 179 199 208 225 240 244 256 250 244 244 264 275 283 291 304 305 312 311 305 284 281 282 281 283 287 288 291 297 302 305 307 310 311 312 313 314 315 315 315
222 233 243 224 203 258 243 132 171 200 211 223 227 239 243 239 226 218 231 259 274 278 273 289 297 300 303 300 292 297 295 291 290 292 294 292 297 299 296 301 303 304 307 309 311 313 313 313 312
218 213 201 213 135 216 251 197 189 211 234 234 229 215 206 194 229 283 303 306 293 277 266 265 273 274 273 282 297 304 306 305 303 303 302 303 307 305 302 300 299 303 305 308 309 310 310 309 309
221 220 204 212 215 176 235 245 255 220 225 242 242 228 212 230 298 314 317 315 303 271 257 254 255 263 269 280 291 303 309 308 312 311 312 307 292 297 292 296 298 301 304 305 308 308 309 308 307
234 241 230 221 212 223 250 254 278 214 223 220 236 255 251 258 298 307 311 315 290 275 253 250 252 257 266 278 289 298 305 306 302 307 299 293 290 294 297 297 299 302 304 307 308 308 309 309 309